| time (UTC) | temp C | wind direction | speed KPH | gust KPH | rain 1hr cm | rain 24hr cm | rain mn cm | humidity % | barometer mb |
| 20260510083003 | 7 | 280 | 9.7 | 25.7 | 0.00 | 0.08 | 0.00 | 69 | 1007.9 |
| 20260510082004 | 7 | 278 | 6.4 | 17.7 | 0.00 | 0.08 | 0.00 | 67 | 1007.9 |
| 20260510081003 | 8 | 278 | 8.0 | 17.7 | 0.00 | 0.08 | 0.00 | 66 | 1007.9 |
| 20260510080003 | 8 | 279 | 6.4 | 14.5 | 0.00 | 0.08 | 0.00 | 65 | 1007.7 |
| 20260510075003 | 8 | 279 | 6.4 | 16.1 | 0.00 | 0.08 | 0.00 | 65 | 1007.6 |
| 20260510074003 | 8 | 280 | 6.4 | 16.1 | 0.00 | 0.08 | 0.00 | 65 | 1007.5 |
| 20260510073004 | 8 | 279 | 6.4 | 16.1 | 0.00 | 0.08 | 0.00 | 64 | 1007.3 |
| 20260510072003 | 9 | 283 | 6.4 | 19.3 | 0.00 | 0.08 | 0.00 | 63 | 1007.4 |
| 20260510071003 | 9 | 278 | 6.4 | 17.7 | 0.00 | 0.08 | 0.00 | 63 | 1007.3 |
| 20260510070004 | 9 | 279 | 4.8 | 12.9 | 0.00 | 0.08 | 0.00 | 63 | 1007.2 |
| 20260510065003 | 9 | 276 | 3.2 | 9.7 | 0.00 | 0.08 | 0.00 | 63 | 1007.0 |
| 20260510064003 | 9 | 264 | 3.2 | 11.3 | 0.00 | 0.08 | 0.00 | 64 | 1006.9 |
| 20260510063024 | 9 | 276 | 4.8 | 14.5 | 0.00 | 0.08 | 0.00 | 67 | 1006.9 |
| 20260510062003 | 9 | 265 | 3.2 | 9.7 | 0.00 | 0.08 | 0.00 | 69 | 1006.8 |
| 20260510061003 | 9 | 269 | 3.2 | 9.7 | 0.00 | 0.08 | 0.00 | 70 | 1006.8 |
| 20260510060003 | 9 | 276 | 4.8 | 17.7 | 0.00 | 0.08 | 0.00 | 70 | 1006.6 |
| 20260510055003 | 10 | 273 | 6.4 | 12.9 | 0.00 | 0.08 | 0.00 | 70 | 1006.5 |
| 20260510054003 | 10 | 279 | 6.4 | 16.1 | 0.00 | 0.08 | 0.00 | 71 | 1006.5 |
| 20260510053003 | 10 | 278 | 8.0 | 20.9 | 0.00 | 0.08 | 0.00 | 72 | 1006.3 |
| 20260510052003 | 10 | 275 | 8.0 | 20.9 | 0.00 | 0.08 | 0.00 | 72 | 1006.1 |
| 20260510051003 | 10 | 279 | 6.4 | 16.1 | 0.00 | 0.08 | 0.00 | 74 | 1005.8 |
| 20260510050003 | 10 | 281 | 4.8 | 11.3 | 0.00 | 0.08 | 0.00 | 77 | 1005.8 |
| 20260510045003 | 10 | 277 | 3.2 | 11.3 | 0.00 | 0.08 | 0.00 | 79 | 1005.7 |
| 20260510044003 | 10 | 264 | 1.6 | 6.4 | 0.00 | 0.08 | 0.00 | 82 | 1005.6 |
| 20260510043024 | 10 | 268 | 3.2 | 11.3 | 0.00 | 0.08 | 0.00 | 84 | 1005.5 |
| 20260510042024 | 10 | 257 | 1.6 | 6.4 | 0.00 | 0.08 | 0.00 | 85 | 1005.4 |
| 20260510041003 | 10 | 264 | 1.6 | 8.0 | 0.00 | 0.08 | 0.00 | 86 | 1005.5 |
| 20260510040003 | 10 | 266 | 3.2 | 9.7 | 0.00 | 0.08 | 0.00 | 87 | 1005.3 |
| 20260510035003 | 10 | 276 | 1.6 | 6.4 | 0.00 | 0.08 | 0.08 | 88 | 1005.2 |
| 20260510034003 | 10 | 269 | 1.6 | 6.4 | 0.00 | 0.08 | 0.08 | 89 | 1005.2 |
| 20260510033003 | 10 | 279 | 0.0 | 4.8 | 0.00 | 0.08 | 0.08 | 89 | 1005.0 |
| 20260510032003 | 10 | 258 | 0.0 | 1.6 | 0.00 | 0.08 | 0.08 | 90 | 1004.9 |
| 20260510031003 | 10 | 274 | 0.0 | 1.6 | 0.00 | 0.08 | 0.08 | 90 | 1004.7 |
| 20260510030004 | 10 | 0 | 0.0 | 0.0 | 0.00 | 0.08 | 0.08 | 90 | 1004.6 |
| 20260510025003 | 10 | 0 | 0.0 | 0.0 | 0.00 | 0.08 | 0.08 | 90 | 1004.6 |
| 20260510024024 | 10 | 150 | 0.0 | 3.2 | 0.00 | 0.08 | 0.08 | 89 | 1004.7 |
| 20260510023003 | 10 | 175 | 0.0 | 1.6 | 0.00 | 0.08 | 0.08 | 89 | 1004.5 |
| 20260510022003 | 10 | 159 | 0.0 | 3.2 | 0.00 | 0.08 | 0.08 | 88 | 1004.4 |
| 20260510021024 | 10 | 158 | 0.0 | 3.2 | 0.00 | 0.08 | 0.08 | 88 | 1004.2 |
| 20260510020003 | 11 | 145 | 0.0 | 4.8 | 0.00 | 0.08 | 0.08 | 87 | 1004.2 |
| 20260510015003 | 11 | 163 | 1.6 | 9.7 | 0.00 | 0.08 | 0.08 | 87 | 1004.2 |
| 20260510014003 | 11 | 172 | 1.6 | 4.8 | 0.00 | 0.08 | 0.08 | 88 | 1004.1 |
| 20260510013003 | 11 | 156 | 4.8 | 11.3 | 0.00 | 0.08 | 0.08 | 88 | 1004.1 |
| 20260510012003 | 11 | 153 | 1.6 | 8.0 | 0.00 | 0.08 | 0.08 | 88 | 1003.9 |
| 20260510011003 | 11 | 167 | 3.2 | 11.3 | 0.00 | 0.08 | 0.08 | 88 | 1003.9 |
| 20260510010024 | 11 | 162 | 4.8 | 14.5 | 0.00 | 0.08 | 0.08 | 88 | 1003.7 |
| 20260510005003 | 12 | 152 | 3.2 | 12.9 | 0.00 | 0.08 | 0.08 | 88 | 1003.6 |
| 20260510004003 | 12 | 168 | 3.2 | 11.3 | 0.00 | 0.08 | 0.08 | 88 | 1003.5 |
| 20260510003003 | 12 | 158 | 1.6 | 4.8 | 0.08 | 0.08 | 0.08 | 88 | 1003.1 |
| 20260510002024 | 12 | 169 | 1.6 | 6.4 | 0.08 | 0.08 | 0.08 | 88 | 1002.8 |
| 20260510001003 | 12 | 163 | 1.6 | 14.5 | 0.08 | 0.08 | 0.08 | 87 | 1002.6 |
| 20260510000025 | 12 | 164 | 1.6 | 6.4 | 0.08 | 0.08 | 0.08 | 86 | 1002.5 |
| 20260509235003 | 12 | 136 | 0.0 | 1.6 | 0.08 | 0.08 | 0.08 | 86 | 1002.5 |
| 20260509234003 | 13 | 261 | 0.0 | 4.8 | 0.08 | 0.08 | 0.08 | 83 | 1002.6 |
| 20260509233003 | 14 | 224 | 0.0 | 3.2 | 0.00 | 0.00 | 0.00 | 78 | 1002.7 |
| 20260509232003 | 14 | 152 | 1.6 | 4.8 | 0.00 | 0.00 | 0.00 | 74 | 1002.2 |
| 20260509231003 | 14 | 126 | 1.6 | 6.4 | 0.00 | 0.00 | 0.00 | 74 | 1002.0 |
| 20260509230003 | 14 | 126 | 1.6 | 4.8 | 0.00 | 0.00 | 0.00 | 74 | 1002.3 |
| 20260509225003 | 14 | 131 | 1.6 | 6.4 | 0.00 | 0.00 | 0.00 | 74 | 1002.4 |
| 20260509224024 | 14 | 144 | 1.6 | 4.8 | 0.00 | 0.00 | 0.00 | 74 | 1002.6 |
| 20260509223003 | 14 | 120 | 1.6 | 4.8 | 0.00 | 0.00 | 0.00 | 74 | 1002.6 |
| 20260509222003 | 13 | 122 | 1.6 | 6.4 | 0.00 | 0.00 | 0.00 | 74 | 1002.7 |
| 20260509221003 | 13 | 127 | 3.2 | 6.4 | 0.00 | 0.00 | 0.00 | 72 | 1002.9 |
| 20260509220003 | 14 | 135 | 1.6 | 6.4 | 0.00 | 0.00 | 0.00 | 72 | 1003.1 |
| 20260509215003 | 14 | 160 | 1.6 | 9.7 | 0.00 | 0.00 | 0.00 | 71 | 1003.5 |
| 20260509214003 | 14 | 155 | 3.2 | 8.0 | 0.00 | 0.00 | 0.00 | 71 | 1003.3 |
| 20260509213003 | 14 | 152 | 3.2 | 12.9 | 0.00 | 0.00 | 0.00 | 71 | 1003.2 |
| 20260509212024 | 15 | 174 | 4.8 | 12.9 | 0.00 | 0.00 | 0.00 | 70 | 1003.3 |
| 20260509211003 | 15 | 144 | 4.8 | 11.3 | 0.00 | 0.00 | 0.00 | 70 | 1003.2 |
| 20260509210024 | 15 | 152 | 4.8 | 11.3 | 0.00 | 0.00 | 0.00 | 69 | 1003.3 |
| 20260509205003 | 15 | 151 | 4.8 | 11.3 | 0.00 | 0.00 | 0.00 | 69 | 1003.1 |
| 20260509204003 | 15 | 156 | 3.2 | 16.1 | 0.00 | 0.00 | 0.00 | 68 | 1003.1 |
| 20260509203003 | 15 | 161 | 6.4 | 17.7 | 0.00 | 0.00 | 0.00 | 67 | 1003.4 |
| 20260509202003 | 16 | 145 | 4.8 | 11.3 | 0.00 | 0.00 | 0.00 | 67 | 1003.0 |
| 20260509201003 | 15 | 142 | 4.8 | 9.7 | 0.00 | 0.00 | 0.00 | 68 | 1003.1 |
| 20260509200003 | 16 | 136 | 6.4 | 16.1 | 0.00 | 0.00 | 0.00 | 67 | 1003.5 |
| 20260509195003 | 16 | 147 | 6.4 | 12.9 | 0.00 | 0.00 | 0.00 | 66 | 1003.6 |
| 20260509194003 | 16 | 135 | 8.0 | 14.5 | 0.00 | 0.00 | 0.00 | 64 | 1003.6 |
| 20260509193003 | 17 | 152 | 6.4 | 19.3 | 0.00 | 0.00 | 0.00 | 64 | 1003.7 |
| 20260509192024 | 16 | 148 | 8.0 | 17.7 | 0.00 | 0.00 | 0.00 | 65 | 1003.9 |
| 20260509191003 | 16 | 142 | 6.4 | 16.1 | 0.00 | 0.00 | 0.00 | 63 | 1004.0 |
| 20260509190003 | 17 | 150 | 6.4 | 20.9 | 0.00 | 0.00 | 0.00 | 61 | 1004.0 |
| 20260509185003 | 18 | 136 | 6.4 | 12.9 | 0.00 | 0.00 | 0.00 | 62 | 1004.1 |
| 20260509184004 | 17 | 151 | 6.4 | 14.5 | 0.00 | 0.00 | 0.00 | 62 | 1004.3 |
| 20260509183003 | 17 | 165 | 9.7 | 19.3 | 0.00 | 0.00 | 0.00 | 61 | 1004.4 |
| 20260509182024 | 17 | 135 | 8.0 | 16.1 | 0.00 | 0.00 | 0.00 | 61 | 1004.5 |
| 20260509181004 | 16 | 138 | 8.0 | 19.3 | 0.00 | 0.00 | 0.00 | 61 | 1004.7 |
| 20260509180003 | 17 | 137 | 8.0 | 14.5 | 0.00 | 0.00 | 0.00 | 59 | 1004.6 |
| 20260509175004 | 18 | 147 | 8.0 | 17.7 | 0.00 | 0.00 | 0.00 | 56 | 1004.8 |
| 20260509174003 | 17 | 142 | 8.0 | 24.1 | 0.00 | 0.00 | 0.00 | 54 | 1004.9 |
| 20260509173003 | 17 | 136 | 6.4 | 17.7 | 0.00 | 0.00 | 0.00 | 56 | 1005.0 |
| 20260509172024 | 17 | 127 | 8.0 | 16.1 | 0.00 | 0.00 | 0.00 | 52 | 1005.0 |
| 20260509171003 | 17 | 126 | 6.4 | 14.5 | 0.00 | 0.00 | 0.00 | 51 | 1005.0 |
| 20260509170003 | 17 | 130 | 6.4 | 14.5 | 0.00 | 0.00 | 0.00 | 54 | 1005.5 |
| 20260509165003 | 17 | 138 | 6.4 | 11.3 | 0.00 | 0.00 | 0.00 | 54 | 1005.5 |
| 20260509164003 | 17 | 152 | 8.0 | 14.5 | 0.00 | 0.00 | 0.00 | 50 | 1005.5 |
| 20260509163003 | 17 | 151 | 6.4 | 17.7 | 0.00 | 0.00 | 0.00 | 51 | 1005.5 |
| 20260509162003 | 17 | 145 | 8.0 | 16.1 | 0.00 | 0.00 | 0.00 | 50 | 1005.6 |
| 20260509161003 | 16 | 145 | 6.4 | 16.1 | 0.00 | 0.00 | 0.00 | 55 | 1005.6 |
| 20260509160003 | 16 | 126 | 6.4 | 12.9 | 0.00 | 0.00 | 0.00 | 60 | 1005.9 |
| 20260509155025 | 16 | 116 | 8.0 | 17.7 | 0.00 | 0.00 | 0.00 | 58 | 1006.0 |
| 20260509154003 | 16 | 134 | 6.4 | 12.9 | 0.00 | 0.00 | 0.00 | 58 | 1006.3 |
| 20260509153003 | 16 | 119 | 4.8 | 14.5 | 0.00 | 0.00 | 0.00 | 59 | 1006.3 |
| 20260509152004 | 15 | 129 | 4.8 | 12.9 | 0.00 | 0.00 | 0.00 | 60 | 1006.5 |
| 20260509151003 | 15 | 130 | 6.4 | 14.5 | 0.00 | 0.00 | 0.00 | 62 | 1006.7 |
| 20260509150024 | 15 | 138 | 4.8 | 9.7 | 0.00 | 0.00 | 0.00 | 64 | 1006.6 |
| 20260509145003 | 14 | 124 | 4.8 | 11.3 | 0.00 | 0.00 | 0.00 | 65 | 1006.8 |
| 20260509144024 | 14 | 133 | 4.8 | 11.3 | 0.00 | 0.00 | 0.00 | 66 | 1006.9 |
| 20260509143003 | 13 | 126 | 3.2 | 9.7 | 0.00 | 0.00 | 0.00 | 65 | 1007.0 |
| 20260509142003 | 13 | 131 | 4.8 | 9.7 | 0.00 | 0.00 | 0.00 | 66 | 1007.1 |
| 20260509141003 | 13 | 137 | 4.8 | 9.7 | 0.00 | 0.00 | 0.00 | 66 | 1007.1 |
| 20260509140004 | 12 | 116 | 4.8 | 11.3 | 0.00 | 0.00 | 0.00 | 69 | 1007.2 |
| 20260509135003 | 12 | 115 | 3.2 | 9.7 | 0.00 | 0.00 | 0.00 | 66 | 1007.3 |
| 20260509134003 | 12 | 123 | 3.2 | 8.0 | 0.00 | 0.00 | 0.00 | 67 | 1007.3 |
| 20260509133003 | 11 | 115 | 3.2 | 8.0 | 0.00 | 0.00 | 0.00 | 69 | 1007.4 |
| 20260509132024 | 11 | 114 | 3.2 | 6.4 | 0.00 | 0.00 | 0.00 | 69 | 1007.4 |
| 20260509131003 | 10 | 116 | 3.2 | 6.4 | 0.00 | 0.00 | 0.00 | 71 | 1007.5 |
| 20260509130003 | 10 | 124 | 1.6 | 6.4 | 0.00 | 0.00 | 0.00 | 72 | 1007.7 |
| 20260509125003 | 9 | 102 | 1.6 | 8.0 | 0.00 | 0.00 | 0.00 | 75 | 1007.6 |
| 20260509124003 | 8 | 113 | 1.6 | 6.4 | 0.00 | 0.00 | 0.00 | 75 | 1007.6 |
| 20260509123003 | 8 | 112 | 0.0 | 4.8 | 0.00 | 0.00 | 0.00 | 79 | 1007.7 |
| 20260509122003 | 7 | 85 | 0.0 | 4.8 | 0.00 | 0.00 | 0.00 | 81 | 1007.9 |
| 20260509121003 | 6 | 0 | 0.0 | 0.0 | 0.00 | 0.00 | 0.00 | 85 | 1008.0 |
| 20260509120003 | 5 | 0 | 0.0 | 0.0 | 0.00 | 0.00 | 0.00 | 87 | 1007.9 |
| 20260509115003 | 4 | 0 | 0.0 | 0.0 | 0.00 | 0.00 | 0.00 | 89 | 1008.1 |
| 20260509114003 | 3 | 0 | 0.0 | 0.0 | 0.00 | 0.00 | 0.00 | 91 | 1008.1 |
| 20260509113003 | 3 | 0 | 0.0 | 0.0 | 0.00 | 0.00 | 0.00 | 92 | 1008.2 |
| 20260509112003 | 2 | 0 | 0.0 | 0.0 | 0.00 | 0.00 | 0.00 | 93 | 1008.3 |
| 20260509111003 | 2 | 0 | 0.0 | 0.0 | 0.00 | 0.00 | 0.00 | 93 | 1008.2 |
| 20260509110003 | 2 | 0 | 0.0 | 0.0 | 0.00 | 0.00 | 0.00 | 93 | 1008.2 |
| 20260509105003 | 1 | 0 | 0.0 | 0.0 | 0.00 | 0.00 | 0.00 | 93 | 1008.1 |
| 20260509104003 | 1 | 0 | 0.0 | 0.0 | 0.00 | 0.00 | 0.00 | 93 | 1007.9 |
| 20260509103003 | 0 | 0 | 0.0 | 0.0 | 0.00 | 0.00 | 0.00 | 93 | 1007.8 |
| 20260509102003 | 0 | 0 | 0.0 | 0.0 | 0.00 | 0.00 | 0.00 | 93 | 1007.8 |
| 20260509101003 | 0 | 0 | 0.0 | 0.0 | 0.00 | 0.00 | 0.00 | 93 | 1007.8 |
| 20260509100004 | 0 | 0 | 0.0 | 0.0 | 0.00 | 0.00 | 0.00 | 92 | 1007.8 |
| 20260509095003 | 0 | 0 | 0.0 | 0.0 | 0.00 | 0.00 | 0.00 | 92 | 1007.7 |
| 20260509094004 | 0 | 0 | 0.0 | 0.0 | 0.00 | 0.00 | 0.00 | 91 | 1007.7 |
| 20260509093003 | 0 | 0 | 0.0 | 0.0 | 0.00 | 0.00 | 0.00 | 91 | 1007.8 |
| 20260509092024 | 0 | 0 | 0.0 | 0.0 | 0.00 | 0.00 | 0.00 | 91 | 1007.8 |
| 20260509091003 | 0 | 0 | 0.0 | 0.0 | 0.00 | 0.00 | 0.00 | 91 | 1007.9 |
| 20260509090003 | 0 | 0 | 0.0 | 0.0 | 0.00 | 0.00 | 0.00 | 91 | 1008.0 |
| 20260509085003 | 0 | 0 | 0.0 | 0.0 | 0.00 | 0.00 | 0.00 | 90 | 1008.0 |
| 20260509084003 | 0 | 0 | 0.0 | 0.0 | 0.00 | 0.00 | 0.00 | 90 | 1008.0 |